sat.trackr.live / text

‹ back to catalog

STARLINK-35323

NORAD 66071 · 2025-235P

PAYLOAD ACTIVE UNKNOWN

§ Identity

Operator
Country
US
Launch date
2025-10-19
Launch site
AFETR
Launch vehicle
Mass (kg)
RCS (m²)

Purposes: comms

External: N2YO · Heavens-Above · Gunter

§ Orbital elements

Epoch: 2026-09-20T13:53:49.512192Z

Period
93.85 min
Inclination
53.1601°
Eccentricity
0.0000872
Mean motion
15.34410098 rev/d
Perigee alt
462.1 km
Apogee alt
463.3 km
Semi-major
6,840.8 km
B*
6.8645e-4
RAAN
59.0523°
Arg perigee
67.3043°
Mean anomaly
292.8052°
Rev number
5,277

§ Raw data

STARLINK-353231 66071U 25235P   26263.57904528  .00022895  00000+0  68645-3 0  99932 66071  53.1601  59.0523 0000872  67.3043 292.8052 15.34410098 52776

JSON: /api/v1/satellites/66071 · /tle

For live sub-satellite position, see the globe view (requires WebGL).

§ Visibility from observer

Set your observer location to see the next 7 days of passes ≥ 10°. The values pass through the URL so the page stays shareable.

No JS? Fill the form by hand. The geolocation button needs JavaScript.